Flag for Canada Weather past 2 weeks in Brandon, Manitoba, Canada

Now
75 °F

High level clouds.


Feels Like: 77 °F
Forecast: 64 / 83 °F
Wind: 6 mph from Southeast

Location: Brandon

Current Time: Jul 3, 2015 at 9:13:08 PM

Latest Report: Jul 3, 2015 at 8:00 PM


Visibility: 3 mi

Pressure: 29.89 "Hg

Humidity: 65%

Dew point: 63 °F

Location of BrandonLocation

Historic Weather in Brandon — Graph

°F

Brandon temperature yesterday

Maximum temperature yesterday: 75 °F (at 2:00 PM)
Minimum temperature yesterday: 54 °F (at 4:00 AM)
Average temperature yesterday: 64 °F

Past Weeks' High & Low Weather Summary

 TemperatureHumidityPressure
High84 °F (Jun 27, 1:00 PM)100% (Jun 20, 2:00 AM)30.13 "Hg (Jun 20, 2:00 AM)
Low46 °F (Jun 23, 6:00 AM)35% (Jun 27, 4:00 PM)29.73 "Hg (Jun 22, 3:00 AM)
Average65 °F77%29.95 "Hg
* Reported Jun 18 8:00 PM — Jul 3 8:00 PM, Brandon, Weather by CustomWeather, © 2015

Note: Actual official high and low records may vary slightly from our data, if they occured in-between our weather recording intervals... More about our weather records

Advertising

Brandon weather history for previous 24 hours

 ConditionsComfort  
Time TempWeatherWind HumidityBarometerVisibility
8:00 PM
Fri, Jul 3
75 °FHigh level clouds.6 mph65%29.89 "Hg3 mi
7:00 PM79 °FHigh level clouds.7 mph58%29.89 "Hg3 mi
6:00 PM79 °FHigh level clouds.10 mph58%29.90 "Hg3 mi
5:00 PM79 °FOvercast.6 mph58%29.92 "Hg3 mi
4:00 PM79 °FHigh level clouds.5 mph58%29.94 "Hg3 mi
3:00 PM79 °FHigh level clouds.No wind48%29.95 "Hg4 mi
2:00 PM77 °FHigh level clouds.5 mph54%29.96 "Hg4 mi
1:00 PM77 °FHigh level clouds.No wind61%29.97 "Hg4 mi
12:00 PM75 °FHigh level clouds.No wind65%29.98 "Hg4 mi
11:04 AM72 °FHigh level clouds.3 mph73%29.98 "Hg4 mi
10:00 AM68 °FHigh level clouds.3 mph88%30.00 "Hg2 mi
9:00 AM63 °FHigh level clouds.5 mph94%30.00 "Hg2 mi
8:00 AM59 °FHigh level clouds.5 mph100%29.98 "Hg2 mi
7:00 AM55 °FFog.7 mph100%29.98 "Hg1 mi
6:00 AM54 °FFog.7 mph100%29.97 "Hg2 mi
5:00 AM55 °FClear.7 mph94%29.96 "Hg5 mi
4:00 AM55 °FClear.3 mph100%29.96 "Hg5 mi
3:00 AM57 °FClear.7 mph94%29.95 "Hg2 mi
2:00 AM57 °FClear.8 mph100%29.95 "Hg2 mi
1:00 AM59 °FClear.8 mph94%29.96 "Hg2 mi
12:00 AM59 °FClear.8 mph94%29.95 "Hg2 mi
11:00 PM
Thu, Jul 2
59 °FClear.6 mph100%29.95 "Hg1 mi
10:00 PM63 °FPartly sunny.7 mph94%29.95 "Hg1 mi
9:00 PM66 °FPartly sunny.7 mph94%29.93 "Hg1 mi
Weather by CustomWeather, © 2015

See weather overviewHow to use our weather pages